This demonstration page uses our WeatherBlox Daily Observations layout. Learn more.

Left ArrowRight Arrow

39.51506, -84.39828

Hourly Observations for September 20, 2015

Temp ( °F °C ) Dew Point ( °F °C ) Humidity (%) Winds ( mph kmh ) Pressure ( in mb ) Visibility ( mi km ) Precip ( " mm )
12:15 am 00:15 Clear 59 14.8 52 10.9 78 78 Calm 30.09 1019 10 16.0934 0 0
12:35 am 00:35 Clear 57 13.9 50 10.2 79 79 Calm 30.09 1019 10 16.0934 0 0
12:55 am 00:55 Clear 57 13.8 51 10.5 81 81 Calm 30.09 1019 10 16.0934 0 0
1:15 am 01:15 Clear 57 13.8 51 10.5 81 81 Calm 30.09 1019 10 16.0934 0 0
1:35 am 01:35 Clear 57 13.7 51 10.7 82 82 Calm 30.09 1019 10 16.0934 0 0
1:55 am 01:55 Clear 55 12.5 50 9.8 84 84 NE 3 6 30.09 1019 10 16.0934 0 0
2:15 am 02:15 Clear 55 12.6 50 10 84 84 N 3 6 30.09 1019 10 16.0934 0 0
2:35 am 02:35 Clear 55 12.5 50 10 85 85 Calm 30.09 1019 10 16.0934 0 0
2:55 am 02:55 Clear 55 12.5 50 10 85 85 NNE 5 7 30.09 1019 10 16.0934 0 0
3:15 am 03:15 Clear 55 12.5 50 10 85 85 NNE 5 7 30.09 1019 10 16.0934 0 0
3:35 am 03:35 Clear 55 12.5 50 10 85 85 NNE 3 6 30.12 1020 10 16.0934 0 0
3:55 am 03:55 Clear 55 12.5 50 10 85 85 NNE 3 6 30.12 1020 10 16.0934 0 0
4:15 am 04:15 Clear 55 12.5 50 10 85 85 NNE 3 6 30.12 1020 10 16.0934 0 0
4:35 am 04:35 Clear 55 12.5 50 10.2 86 86 Calm 30.12 1020 10 16.0934 0 0
4:55 am 04:55 Clear 55 12.5 51 10.3 87 87 NNE 3 6 30.12 1020 10 16.0934 0 0
5:15 am 05:15 Partly Cloudy 55 12.5 51 10.3 87 87 NNE 3 6 30.12 1020 10 16.0934 0 0
5:35 am 05:35 Partly Cloudy 55 12.5 50 10.2 86 86 NNE 5 7 30.12 1020 10 16.0934 0 0
5:55 am 05:55 Clear 55 12.5 50 10.2 86 86 NNE 3 6 30.12 1020 10 16.0934 0 0
6:15 am 06:15 Partly Cloudy 55 12.5 51 10.4 87 87 NNE 5 7 30.15 1021 10 16.0934 0 0
6:35 am 06:35 Clear 55 12.5 51 10.5 88 88 NNE 3 6 30.15 1021 10 16.0934 0 0
6:55 am 06:55 Clear 55 12.5 51 10.5 88 88 NNE 3 6 30.15 1021 10 16.0934 0 0
7:15 am 07:15 Clear 54 12.4 51 10.4 88 88 NNE 3 6 30.15 1021 10 16.0934 0 0
7:35 am 07:35 Sunny 55 12.5 51 10.6 88 88 NNE 5 7 30.15 1021 10 16.0934 0 0
7:55 am 07:55 Sunny 55 12.5 51 10.5 88 88 NNE 5 7 30.18 1022 10 16.0934 0 0
8:15 am 08:15 Sunny 55 12.5 51 10.4 87 87 NNE 6 9 30.18 1022 10 16.0934 0 0
8:35 am 08:35 Sunny 57 13.8 52 11.3 85 85 NNE 5 7 30.18 1022 10 16.0934 0 0
8:55 am 08:55 Sunny 58 14.5 53 11.5 82 82 NNE 7 11 30.18 1022 10 16.0934 0 0
9:15 am 09:15 Sunny 60 15.3 54 12.1 81 81 NE 6 9 30.18 1022 10 16.0934 0 0
9:35 am 09:35 Sunny 61 16 53 11.9 77 77 NE 8 13 30.18 1022 10 16.0934 0 0
9:55 am 09:55 Sunny 62 16.9 54 12.4 75 75 NNE 6 9 30.21 1023 10 16.0934 0 0
10:15 am 10:15 Sunny 64 18 54 12.2 69 69 NE 6 9 30.18 1022 10 16.0934 0 0
10:35 am 10:35 Sunny 67 19.5 55 12.7 65 65 NE 7 11 30.18 1022 10 16.0934 0 0
10:55 am 10:55 Partly Cloudy 67 19.5 55 12.5 64 64 ENE 3 6 30.18 1022 10 16.0934 0 0
11:15 am 11:15 Partly Cloudy 69 20.8 52 10.9 53 53 E 10 17 30.18 1022 10 16.0934 0 0
11:35 am 11:35 Partly Cloudy 69 20.8 49 9.3 48 48 ENE 9 15 30.18 1022 10 16.0934 0 0
11:55 am 11:55 Partly Cloudy 69 20.8 49 9.7 49 49 E 7 11 30.18 1022 10 16.0934 0 0
12:15 pm 12:15 Mostly Cloudy 72 22.3 49 9.3 44 44 NE 12 19 30.15 1021 10 16.0934 0 0
12:35 pm 12:35 Mostly Cloudy 74 23.6 49 9.5 41 41 E 9 15 30.15 1021 10 16.0934 0 0
12:55 pm 12:55 Mostly Cloudy 74 23.6 48 8.8 39 39 ESE 8 13 30.15 1021 10 16.0934 0 0
1:15 pm 13:15 Mostly Cloudy 72 22.4 47 8.3 41 41 NE 10 17 30.15 1021 10 16.0934 0 0
1:35 pm 13:35 Mostly Cloudy 74 23.2 47 8.5 39 39 ENE 7 11 30.12 1020 10 16.0934 0 0
1:55 pm 13:55 Mostly Cloudy 71 21.6 46 7.5 40 40 NNE 9 15 30.12 1020 10 16.0934 0 0
2:15 pm 14:15 Partly Cloudy 74 23.6 46 8 37 37 ENE 9 15 30.12 1020 10 16.0934 0 0
2:35 pm 14:35 Partly Cloudy 76 24.3 46 7.5 34 34 E 8 13 30.09 1019 10 16.0934 0 0
2:55 pm 14:55 Partly Cloudy 74 23.6 45 7.3 35 35 NE 7 11 30.09 1019 10 16.0934 0 0
3:15 pm 15:15 Partly Cloudy 74 23.6 44 6.7 34 34 E 10 17 30.09 1019 10 16.0934 0 0
3:35 pm 15:35 Mostly Cloudy 74 23.6 47 8.2 37 37 NE 8 13 30.09 1019 10 16.0934 0 0
3:55 pm 15:55 Mostly Cloudy 74 23.6 47 8.2 37 37 ENE 7 11 30.09 1019 10 16.0934 0 0
4:15 pm 16:15 Partly Cloudy 74 23.6 45 7.4 35 35 ENE 9 15 30.06 1018 10 16.0934 0 0
4:35 pm 16:35 Partly Cloudy 74 23.6 44 6.8 34 34 NE 7 11 30.06 1018 10 16.0934 0 0
4:55 pm 16:55 Partly Cloudy 74 23.6 44 6.9 34 34 NNE 8 13 30.06 1018 10 16.0934 0 0
5:15 pm 17:15 Partly Cloudy 75 24.1 44 6.6 33 33 ENE 12 19 30.06 1018 10 16.0934 0 0
5:35 pm 17:35 Partly Cloudy 74 23.6 45 7 34 34 NE 3 6 30.06 1018 10 16.0934 0 0
5:55 pm 17:55 Sunny 74 23.6 44 6.6 34 34 ENE 7 11 30.06 1018 7 11.26538 0 0
6:15 pm 18:15 Partly Cloudy 74 23.6 45 7.4 35 35 ENE 14 22 30.06 1018 10 16.0934 0 0
6:35 pm 18:35 Partly Cloudy 70 21.3 45 7.4 41 41 NE 5 7 30.06 1018 10 16.0934 0 0
6:55 pm 18:55 Partly Cloudy 73 22.5 47 8.2 40 40 Calm 30.06 1018 10 16.0934 0 0
7:15 pm 19:15 Partly Cloudy 69 20.8 46 7.9 44 44 ENE 6 9 30.06 1018 10 16.0934 0 0
7:35 pm 19:35 Sunny 69 20.8 51 10.4 52 52 Calm 30.06 1018 10 16.0934 0 0
7:55 pm 19:55 Clear 64 17.8 51 10.6 63 63 Calm 30.06 1018 10 16.0934 0 0
8:15 pm 20:15 Clear 61 16 52 11.1 73 73 Calm 30.09 1019 10 16.0934 0 0
8:35 pm 20:35 Clear 60 15.3 53 11.5 78 78 Calm 30.09 1019 10 16.0934 0 0
8:55 pm 20:55 Clear 58 14.6 51 10.8 78 78 Calm 30.12 1020 10 16.0934 0 0
9:15 pm 21:15 Partly Cloudy 59 15.2 53 11.6 79 79 Calm 30.12 1020 10 16.0934 0 0
9:35 pm 21:35 Cloudy 60 15.3 53 11.7 79 79 Calm 30.12 1020 10 16.0934 0 0
9:55 pm 21:55 Mostly Cloudy 60 15.3 52 11.2 77 77 N 3 6 30.12 1020 10 16.0934 0 0
10:15 pm 22:15 Mostly Cloudy 57 13.9 51 10.6 81 81 NNE 5 7 30.12 1020 10 16.0934 0 0
10:35 pm 22:35 Partly Cloudy 60 15.3 53 11.6 79 79 NNE 3 6 30.12 1020 10 16.0934 0 0
10:55 pm 22:55 Partly Cloudy 58 14.2 51 10.5 79 79 NNE 3 6 30.12 1020 10 16.0934 0 0
11:15 pm 23:15 Clear 57 13.8 52 10.9 83 83 Calm 30.12 1020 10 16.0934 0 0
11:35 pm 23:35 Clear 55 12.9 50 10.2 84 84 NNE 5 7 30.12 1020 10 16.0934 0 0
11:55 pm 23:55 Clear 57 13.8 52 11.1 84 84 NNE 3 6 30.12 1020 10 16.0934 0 0

Powered by AerisWeather